User: anonymous   Login
Location: Brno
(49.2000°N, 16.6330°E)
Time: 09:22:29
(UTC+02:00)
Language:

BREEZE M DEB (TANK) - Orbit

View from above orbital plane
View from above orbital plane
View from above satellite
View from above satellite

Ground track
Ground track

The orbit data is extracted from the following two-line orbital elements,

1 28359U 04022B   17145.13661662 +.00000471 +00000-0 +96611-4 0  9993
2 28359 049.5275 069.7718 4660312 208.6281 115.1230 06.20049989283876
Epoch (UTC): 25 May 2017 03:16:43
Eccentricity: 0.4660312
inclination: 49.5275°
perigee height: 305 km
apogee height: 11970 km
right ascension of ascending node: 69.7718°
argument of perigee: 208.6281°
revolutions per day: 6.20049989
mean anomaly at epoch: 115.1230°
orbit number at epoch: 28387

The dashed part of the orbit path shows where the satellite is in the earth's shadow,  

DLR